CO3D F2

operational
NORAD ID: 64902 Int'l Des: 2025-156 Owner: CNES Country: F
LEOCIRCULARRETROGRADESSO

CO3D F2について

説明を読み込み中...

リアルタイム位置

3D地球を読み込み中...

次回通過

高度履歴

Altitude vs Time

uPlot chart will show altitude changes over time

軌道要素

1 64902U 25156D 25340.88608559 .00000541 00000-0 28087-4 0 9992
2 64902 97.4344 57.2359 0000791 99.0952 261.0373 15.20210595 20314
Epoch: Dec 6, 2025 • Age: 14 hours

現在のステータス

高度 533.6 km
速度 7.59 km/s
衛星直下点 -78.43°S, 146.26°W
打ち上げ日 Jul 26, 2025
運用期間 0.3 years
タイプ earth observation

技術仕様

分類 Payload
質量 285.00 kg
乾燥質量 285.00 kg
総質量 285.00 kg
長さ 1.20 m
直径 0.50 m
スパン 2.50 m
形状 Box+ 2 pan
製造者 ADST
バスタイプ Astrobus-SE
フェーズステータス In Orbit
所有者/国 CNES/F

大規模コンステレーション

Loading constellations...